Weather in Krasnye Barrikady

Russia / Astrakhan Oblast     46°12′16″N   47°51′30″E
temp.,
°C
wind,
m/s
gust,
m/s
humid.,
%
clouds,
%
prec.,
mm/h
press.,
hPa
HPBL,
m
15 august, mon
mon1501:00+27e59320 0.0 1010157
04:00+27e716320 0.0 1009350
07:00+27e715370 0.0 1010389
10:00+35e1012200 0.0 10101154
13:00+37ese1010160 0.0 10101805
16:00+37ese99160 0.0 10101605
19:00+34ese79194 0.0 1010662
22:00+28e510315 0.0 1011159
16 august, tue
tue1601:00+27ene511360 0.0 1011193
04:00+27ene613310 0.0 1011235
07:00+27e614320 0.0 1011306
10:00+36e810190 0.0 1011949
13:00+39se89140 0.0 10102028
16:00+39se88150 0.0 10102132
19:00+35se68210 0.0 1011464
22:00+28ese48360 0.0 1011121
17 august, wed
wed1701:00+28ese48325 0.0 1011105
04:00+27ese59341 0.0 1011135
07:00+28ese513392 0.0 1011266
10:00+37sse911170 0.0 10101309
13:00+38s912194 0.0 10101381
16:00+37sse912210 0.0 10101179
19:00+33sse712281 0.0 1010630
22:00+26se615590 0.0 1010346
18 august, thu
thu1801:00+26se614555 0.0 1010276
04:00+27se71642100 0.0 1010320
07:00+29se8174186 0.0 1010548
10:00+33sse1215256 0.0 10111037
13:00+35sse1114214 0.0 10111438
16:00+34se11131587 0.0 10111173
19:00+31se812224 0.0 1011810
22:00+25ese5114522 0.0 1011203
19 august, fri
fri1901:00+24e51058100 0.0 1011173
04:00+27ese81640100 0.0 1010430
07:00+27se81542100 0.0 1012532
10:00+32se101321100 0.0 10131451
13:00+34se101216100 0.0 10131515
16:00+31ese101319100 0.0 1013995
19:00+29ese7112997 0.0 1013710
22:00+26e6134687 0.0 1014330